Flag for Canada Weather past 2 weeks in Stonewall, Manitoba, Canada

Now
68 °F

Mostly cloudy.


Feels Like: 68 °F
Forecast: 58 / 73 °F
Wind: 22 mph from South

Location: Winnipeg Int. Airportman.

Current Time: Sep 19, 2014 at 1:14:03 AM

Latest Report: Sep 19, 2014 at 12:00 AM


Visibility: 15 mi

Pressure: 29.54 "Hg

Humidity: 73%

Dew point: 59 °F

Location of StonewallLocation

Historic Weather in Stonewall — Graph

°F

Stonewall temperature yesterday

Maximum temperature yesterday: 68 °F (at 6:00 PM)
Minimum temperature yesterday: 37 °F (at 4:00 AM)
Average temperature yesterday: 53 °F

Past Weeks' High & Low Weather Summary

 TemperatureHumidityPressure
High79 °F (Sep 7, 5:00 PM)100% (Sep 5, 5:00 AM)30.47 "Hg (Sep 5, 5:00 AM)
Low34 °F (Sep 12, 7:00 AM)28% (Sep 15, 3:00 PM)29.54 "Hg (Sep 19, 12:00 AM)
Average52 °F73%30.05 "Hg
* Reported Midnight between Sep 3 and Sep 4 — Midnight between Sep 18 and Sep 19, Stonewall, Weather by CustomWeather, © 2014

Note: Actual official high and low records may vary slightly from our data, if they occured in-between our weather recording intervals... More about our weather records

Advertising

Stonewall weather history for previous 24 hours

 ConditionsComfort  
Time TempWeatherWind HumidityBarometerVisibility
12:00 AM
Sep 19
68 °FMostly cloudy.22 mph73%29.54 "Hg15 mi
11:00 PM
Sep 18
68 °FPassing clouds.23 mph73%29.57 "Hg15 mi
10:00 PM66 °FPassing clouds.23 mph73%29.61 "Hg15 mi
9:00 PM64 °FPartly cloudy.16 mph78%29.64 "Hg15 mi
8:00 PM64 °FBroken clouds.16 mph73%29.66 "Hg15 mi
7:00 PM66 °FBroken clouds.18 mph68%29.66 "Hg15 mi
6:00 PM68 °FBroken clouds.18 mph64%29.71 "Hg15 mi
5:00 PM66 °FPartly sunny.18 mph64%29.76 "Hg15 mi
4:00 PM66 °FPartly sunny.23 mph64%29.79 "Hg15 mi
3:00 PM64 °FPartly sunny.21 mph68%29.83 "Hg15 mi
2:00 PM61 °FScattered clouds.18 mph72%29.88 "Hg15 mi
1:00 PM61 °FPassing clouds.15 mph68%29.93 "Hg15 mi
12:00 PM57 °FPartly sunny.15 mph77%29.95 "Hg15 mi
11:00 AM54 °FPartly sunny.14 mph77%29.97 "Hg15 mi
10:00 AM48 °FPartly sunny.15 mph82%29.99 "Hg15 mi
9:00 AM45 °FPartly sunny.8 mph87%30.01 "Hg15 mi
8:00 AM39 °FClear.6 mph87%30.02 "Hg15 mi
7:00 AM37 °FClear.7 mph93%30.04 "Hg15 mi
6:00 AM37 °FClear.9 mph93%30.05 "Hg15 mi
5:00 AM37 °FClear.8 mph93%30.07 "Hg15 mi
4:00 AM37 °FClear.6 mph93%30.08 "Hg15 mi
3:00 AM39 °FClear.8 mph87%30.10 "Hg15 mi
2:00 AM39 °FClear.7 mph87%30.12 "Hg15 mi
1:00 AM39 °FClear.6 mph87%30.13 "Hg15 mi
Weather by CustomWeather, © 2014

See weather overviewHow to use our weather pages